Time,TemperatureF,DewpointF,PressureIn,WindDirection,WindDirectionDegrees,WindSpeedMPH,WindSpeedGustMPH,Humidity,HourlyPrecipIn,Conditions,Clouds,dailyrainin,SoftwareType,DateUTC
2013-05-15 00:00:00,66.8,55.9,30.09,SE,139,0.0,0.0,68,0.00,,---,0.00,VWS V14.01,2013-05-15 04:00:00,
2013-05-15 00:02:00,66.4,55.9,30.09,SE,139,0.0,0.0,69,0.00,,---,0.00,VWS V14.01,2013-05-15 04:02:00,
2013-05-15 00:04:00,66.3,56.2,30.09,SE,139,0.0,0.0,70,0.00,,---,0.00,VWS V14.01,2013-05-15 04:04:00,
2013-05-15 00:05:00,66.3,56.2,30.09,SE,139,0.0,0.0,70,0.00,,---,0.00,VWS V14.01,2013-05-15 04:05:00,
2013-05-15 00:11:00,66.3,56.2,30.09,SE,139,0.0,0.0,70,0.00,,---,0.00,VWS V14.01,2013-05-15 04:11:00,
2013-05-15 00:15:00,66.1,56.4,30.09,SE,139,0.0,0.0,71,0.00,,---,0.00,VWS V14.01,2013-05-15 04:15:00,
2013-05-15 00:18:00,66.0,56.3,30.09,SE,139,0.0,0.0,71,0.00,,---,0.00,VWS V14.01,2013-05-15 04:18:00,
2013-05-15 00:20:00,65.8,56.5,30.09,SE,139,0.0,0.0,72,0.00,,---,0.00,VWS V14.01,2013-05-15 04:20:00,
2013-05-15 00:24:00,65.6,56.7,30.09,SE,139,0.0,0.0,73,0.00,,---,0.00,VWS V14.01,2013-05-15 04:24:00,
2013-05-15 00:26:00,65.5,56.6,30.09,SE,139,0.0,0.0,73,0.00,,---,0.00,VWS V14.01,2013-05-15 04:26:00,
2013-05-15 00:32:00,65.3,56.4,30.09,SE,139,0.0,0.0,73,0.00,,---,0.00,VWS V14.01,2013-05-15 04:32:00,
2013-05-15 00:34:00,65.3,56.4,30.09,SE,139,0.0,0.0,73,0.00,,---,0.00,VWS V14.01,2013-05-15 04:34:00,
2013-05-15 00:36:00,65.3,56.4,30.09,SE,139,0.0,0.0,73,0.00,,---,0.00,VWS V14.01,2013-05-15 04:36:00,
2013-05-15 00:39:00,65.3,56.8,30.09,SE,139,0.0,0.0,74,0.00,,---,0.00,VWS V14.01,2013-05-15 04:39:00,
2013-05-15 00:40:00,65.3,56.4,30.09,SE,139,0.0,0.0,73,0.00,,---,0.00,VWS V14.01,2013-05-15 04:40:00,
2013-05-15 00:41:00,65.3,56.4,30.09,SE,139,0.0,0.0,73,0.00,,---,0.00,VWS V14.01,2013-05-15 04:41:00,
2013-05-15 00:45:00,65.2,56.3,30.09,SE,139,0.0,0.0,73,0.00,,---,0.00,VWS V14.01,2013-05-15 04:45:00,
2013-05-15 00:47:00,65.2,56.3,30.09,SE,139,0.0,0.0,73,0.00,,---,0.00,VWS V14.01,2013-05-15 04:47:00,
2013-05-15 00:51:00,65.2,56.3,30.09,SE,139,0.0,0.0,73,0.00,,---,0.00,VWS V14.01,2013-05-15 04:51:00,
2013-05-15 00:54:00,64.8,56.3,30.10,SE,139,0.0,0.0,74,0.00,,---,0.00,VWS V14.01,2013-05-15 04:54:00,
2013-05-15 00:58:00,64.8,56.7,30.10,SE,139,0.0,0.0,75,0.00,,---,0.00,VWS V14.01,2013-05-15 04:58:00,
2013-05-15 00:59:00,64.7,56.6,30.10,SE,139,0.0,0.0,75,0.00,,---,0.00,VWS V14.01,2013-05-15 04:59:00,
2013-05-15 01:00:00,64.7,56.6,30.10,SE,139,0.0,0.0,75,0.00,,---,0.00,VWS V14.01,2013-05-15 05:00:00,
2013-05-15 01:01:00,64.7,56.6,30.10,SE,139,0.0,0.0,75,0.00,,---,0.00,VWS V14.01,2013-05-15 05:01:00,
2013-05-15 01:03:00,64.7,56.6,30.09,SE,139,0.0,0.0,75,0.00,,---,0.00,VWS V14.01,2013-05-15 05:03:00,
2013-05-15 01:07:00,64.5,56.4,30.09,SE,139,0.0,0.0,75,0.00,,---,0.00,VWS V14.01,2013-05-15 05:07:00,
2013-05-15 01:08:00,64.5,56.4,30.09,SE,139,0.0,0.0,75,0.00,,---,0.00,VWS V14.01,2013-05-15 05:08:00,
2013-05-15 01:13:00,64.3,56.6,30.09,SE,139,0.0,0.0,76,0.00,,---,0.00,VWS V14.01,2013-05-15 05:13:00,
2013-05-15 01:15:00,64.3,56.6,30.09,SE,139,0.0,0.0,76,0.00,,---,0.00,VWS V14.01,2013-05-15 05:15:00,
2013-05-15 01:16:00,64.3,56.6,30.09,SE,139,0.0,0.0,76,0.00,,---,0.00,VWS V14.01,2013-05-15 05:16:00,
2013-05-15 01:20:00,64.3,56.6,30.09,SE,139,0.0,0.0,76,0.00,,---,0.00,VWS V14.01,2013-05-15 05:20:00,
2013-05-15 01:23:00,64.3,57.0,30.09,SE,139,0.0,0.0,77,0.00,,---,0.00,VWS V14.01,2013-05-15 05:23:00,
2013-05-15 01:24:00,64.2,56.8,30.09,SE,139,0.0,0.0,77,0.00,,---,0.00,VWS V14.01,2013-05-15 05:24:00,
2013-05-15 01:25:00,64.3,57.0,30.09,SE,139,0.0,0.0,77,0.00,,---,0.00,VWS V14.01,2013-05-15 05:25:00,
2013-05-15 01:29:00,64.3,57.0,30.09,SE,139,0.0,0.0,77,0.00,,---,0.00,VWS V14.01,2013-05-15 05:29:00,
2013-05-15 01:30:00,64.3,56.6,30.09,SE,139,0.0,0.0,76,0.00,,---,0.00,VWS V14.01,2013-05-15 05:30:00,
2013-05-15 01:33:00,64.3,57.0,30.09,SE,139,2.0,2.0,77,0.00,,---,0.00,VWS V14.01,2013-05-15 05:33:00,
2013-05-15 01:36:00,64.3,57.0,30.09,SE,139,0.0,2.0,77,0.00,,---,0.00,VWS V14.01,2013-05-15 05:36:00,
2013-05-15 01:39:00,64.3,57.0,30.09,SE,139,0.0,2.0,77,0.00,,---,0.00,VWS V14.01,2013-05-15 05:39:00,
2013-05-15 01:41:00,64.3,57.0,30.09,SE,139,0.0,2.0,77,0.00,,---,0.00,VWS V14.01,2013-05-15 05:41:00,
2013-05-15 01:44:00,64.3,57.0,30.09,SE,139,0.0,2.0,77,0.00,,---,0.00,VWS V14.01,2013-05-15 05:44:00,
2013-05-15 01:46:00,64.2,56.8,30.09,SE,139,0.0,2.0,77,0.00,,---,0.00,VWS V14.01,2013-05-15 05:46:00,
2013-05-15 01:50:00,64.2,56.5,30.09,SE,139,0.0,2.0,76,0.00,,---,0.00,VWS V14.01,2013-05-15 05:50:00,
2013-05-15 01:52:00,64.2,56.8,30.09,SE,139,0.0,2.0,77,0.00,,---,0.00,VWS V14.01,2013-05-15 05:52:00,
2013-05-15 01:56:00,64.2,56.8,30.09,SE,139,0.0,2.0,77,0.00,,---,0.00,VWS V14.01,2013-05-15 05:56:00,
2013-05-15 01:57:00,64.2,56.8,30.09,SE,139,0.0,2.0,77,0.00,,---,0.00,VWS V14.01,2013-05-15 05:57:00,
2013-05-15 01:58:00,64.2,56.8,30.09,SE,139,0.0,2.0,77,0.00,,---,0.00,VWS V14.01,2013-05-15 05:58:00,
2013-05-15 02:01:00,64.0,56.7,30.09,SE,139,0.0,2.0,77,0.00,,---,0.00,VWS V14.01,2013-05-15 06:01:00,
2013-05-15 02:03:00,64.0,56.7,30.09,SE,139,0.0,2.0,77,0.00,,---,0.00,VWS V14.01,2013-05-15 06:03:00,
2013-05-15 02:04:00,64.0,56.7,30.09,SE,139,0.0,2.0,77,0.00,,---,0.00,VWS V14.01,2013-05-15 06:04:00,
2013-05-15 02:07:00,64.0,57.0,30.09,SE,139,0.0,2.0,78,0.00,,---,0.00,VWS V14.01,2013-05-15 06:07:00,
2013-05-15 02:13:00,63.7,56.7,30.09,SE,139,0.0,0.0,78,0.00,,---,0.00,VWS V14.01,2013-05-15 06:13:00,
2013-05-15 02:15:00,63.5,56.9,30.09,SE,139,0.0,0.0,79,0.00,,---,0.00,VWS V14.01,2013-05-15 06:15:00,
2013-05-15 02:16:00,63.5,56.9,30.09,SE,139,0.0,0.0,79,0.00,,---,0.00,VWS V14.01,2013-05-15 06:16:00,
2013-05-15 02:17:00,63.5,56.9,30.09,SE,139,0.0,0.0,79,0.00,,---,0.00,VWS V14.01,2013-05-15 06:17:00,
2013-05-15 02:19:00,63.5,56.9,30.09,SE,139,0.0,0.0,79,0.00,,---,0.00,VWS V14.01,2013-05-15 06:19:00,
2013-05-15 02:21:00,63.4,56.8,30.08,SE,139,0.0,0.0,79,0.00,,---,0.00,VWS V14.01,2013-05-15 06:21:00,
2013-05-15 02:22:00,63.4,56.8,30.08,SE,139,0.0,0.0,79,0.00,,---,0.00,VWS V14.01,2013-05-15 06:22:00,
2013-05-15 02:23:00,63.4,56.8,30.08,SE,139,0.0,0.0,79,0.00,,---,0.00,VWS V14.01,2013-05-15 06:23:00,
2013-05-15 02:24:00,63.4,56.8,30.08,SE,139,0.0,0.0,79,0.00,,---,0.00,VWS V14.01,2013-05-15 06:24:00,
2013-05-15 02:28:00,63.2,56.6,30.08,SE,139,0.0,0.0,79,0.00,,---,0.00,VWS V14.01,2013-05-15 06:28:00,
2013-05-15 02:29:00,63.2,56.6,30.08,SE,139,0.0,0.0,79,0.00,,---,0.00,VWS V14.01,2013-05-15 06:29:00,
2013-05-15 02:34:00,63.2,56.9,30.08,SE,139,0.0,0.0,80,0.00,,---,0.00,VWS V14.01,2013-05-15 06:34:00,
2013-05-15 02:36:00,63.1,56.8,30.08,SE,139,0.0,0.0,80,0.00,,---,0.00,VWS V14.01,2013-05-15 06:36:00,
2013-05-15 02:39:00,63.1,56.8,30.08,SE,139,0.0,0.0,80,0.00,,---,0.00,VWS V14.01,2013-05-15 06:39:00,
2013-05-15 02:42:00,62.9,56.6,30.08,SE,139,0.0,0.0,80,0.00,,---,0.00,VWS V14.01,2013-05-15 06:42:00,
2013-05-15 02:44:00,62.9,56.6,30.08,SE,139,0.0,0.0,80,0.00,,---,0.00,VWS V14.01,2013-05-15 06:44:00,
2013-05-15 02:48:00,62.7,56.8,30.08,SE,139,0.0,0.0,81,0.00,,---,0.00,VWS V14.01,2013-05-15 06:48:00,
2013-05-15 02:51:00,62.7,56.8,30.08,SE,139,0.0,0.0,81,0.00,,---,0.00,VWS V14.01,2013-05-15 06:51:00,
2013-05-15 02:53:00,62.6,56.7,30.08,SE,139,0.0,0.0,81,0.00,,---,0.00,VWS V14.01,2013-05-15 06:53:00,
2013-05-15 02:55:00,62.6,56.7,30.08,SE,139,0.0,0.0,81,0.00,,---,0.00,VWS V14.01,2013-05-15 06:55:00,
2013-05-15 02:59:00,62.4,56.8,30.08,SE,139,0.0,0.0,82,0.00,,---,0.00,VWS V14.01,2013-05-15 06:59:00,
2013-05-15 03:01:00,62.4,56.8,30.08,SE,139,0.0,0.0,82,0.00,,---,0.00,VWS V14.01,2013-05-15 07:01:00,
2013-05-15 03:02:00,62.4,56.8,30.08,SE,139,0.0,0.0,82,0.00,,---,0.00,VWS V14.01,2013-05-15 07:02:00,
2013-05-15 03:03:00,62.4,56.8,30.08,SE,139,0.0,0.0,82,0.00,,---,0.00,VWS V14.01,2013-05-15 07:03:00,
2013-05-15 03:06:00,62.4,56.8,30.08,SE,139,0.0,0.0,82,0.00,,---,0.00,VWS V14.01,2013-05-15 07:06:00,
2013-05-15 03:08:00,62.4,56.8,30.08,SE,139,0.0,0.0,82,0.00,,---,0.00,VWS V14.01,2013-05-15 07:08:00,
2013-05-15 03:10:00,62.3,56.7,30.08,SE,139,0.0,0.0,82,0.00,,---,0.00,VWS V14.01,2013-05-15 07:10:00,
2013-05-15 03:11:00,62.3,56.7,30.08,SE,139,0.0,0.0,82,0.00,,---,0.00,VWS V14.01,2013-05-15 07:11:00,
2013-05-15 03:13:00,62.3,56.7,30.08,SE,139,0.0,0.0,82,0.00,,---,0.00,VWS V14.01,2013-05-15 07:13:00,
2013-05-15 03:16:00,62.3,56.7,30.08,SE,139,0.0,0.0,82,0.00,,---,0.00,VWS V14.01,2013-05-15 07:16:00,
2013-05-15 03:17:00,62.3,56.7,30.08,SE,139,0.0,0.0,82,0.00,,---,0.00,VWS V14.01,2013-05-15 07:17:00,
2013-05-15 03:19:00,62.3,56.7,30.08,SE,139,0.0,0.0,82,0.00,,---,0.00,VWS V14.01,2013-05-15 07:19:00,
2013-05-15 03:23:00,62.3,56.7,30.08,SE,139,0.0,0.0,82,0.00,,---,0.00,VWS V14.01,2013-05-15 07:23:00,
2013-05-15 03:25:00,62.3,56.4,30.08,SE,139,0.0,0.0,81,0.00,,---,0.00,VWS V14.01,2013-05-15 07:25:00,
2013-05-15 03:26:00,62.3,56.4,30.08,SE,139,0.0,0.0,81,0.00,,---,0.00,VWS V14.01,2013-05-15 07:26:00,
2013-05-15 03:31:00,62.1,56.2,30.08,SE,139,0.0,0.0,81,0.00,,---,0.00,VWS V14.01,2013-05-15 07:31:00,
2013-05-15 03:33:00,62.1,56.2,30.08,SE,139,0.0,0.0,81,0.00,,---,0.00,VWS V14.01,2013-05-15 07:33:00,
2013-05-15 03:39:00,62.1,56.2,30.08,SE,139,0.0,0.0,81,0.00,,---,0.00,VWS V14.01,2013-05-15 07:39:00,
2013-05-15 03:41:00,62.1,56.2,30.08,SE,139,0.0,0.0,81,0.00,,---,0.00,VWS V14.01,2013-05-15 07:41:00,
2013-05-15 03:44:00,62.1,56.2,30.08,SE,139,0.0,0.0,81,0.00,,---,0.00,VWS V14.01,2013-05-15 07:44:00,
2013-05-15 03:47:00,62.0,56.5,30.08,SE,139,0.0,0.0,82,0.00,,---,0.00,VWS V14.01,2013-05-15 07:47:00,
2013-05-15 03:49:00,62.0,56.5,30.07,SE,139,0.0,0.0,82,0.00,,---,0.00,VWS V14.01,2013-05-15 07:49:00,
2013-05-15 03:52:00,61.8,56.2,30.07,SE,139,0.0,0.0,82,0.00,,---,0.00,VWS V14.01,2013-05-15 07:52:00,
2013-05-15 03:53:00,61.8,56.2,30.07,SE,139,0.0,0.0,82,0.00,,---,0.00,VWS V14.01,2013-05-15 07:53:00,
2013-05-15 03:55:00,61.8,56.2,30.07,SE,139,0.0,0.0,82,0.00,,---,0.00,VWS V14.01,2013-05-15 07:55:00,
2013-05-15 03:59:00,61.8,56.2,30.07,SE,139,0.0,0.0,82,0.00,,---,0.00,VWS V14.01,2013-05-15 07:59:00,
2013-05-15 04:00:00,61.8,56.2,30.07,SE,139,0.0,0.0,82,0.00,,---,0.00,VWS V14.01,2013-05-15 08:00:00,
2013-05-15 04:01:00,61.8,56.2,30.07,SE,139,0.0,0.0,82,0.00,,---,0.00,VWS V14.01,2013-05-15 08:01:00,
2013-05-15 04:04:00,61.6,56.1,30.07,SE,139,0.0,0.0,82,0.00,,---,0.00,VWS V14.01,2013-05-15 08:04:00,
2013-05-15 04:07:00,61.6,56.4,30.07,SE,139,0.0,0.0,83,0.00,,---,0.00,VWS V14.01,2013-05-15 08:07:00,
2013-05-15 04:12:00,61.5,56.3,30.07,SE,139,0.0,0.0,83,0.00,,---,0.00,VWS V14.01,2013-05-15 08:12:00,
2013-05-15 04:14:00,61.5,56.3,30.07,SE,139,0.0,0.0,83,0.00,,---,0.00,VWS V14.01,2013-05-15 08:14:00,
2013-05-15 04:18:00,61.3,56.1,30.07,SE,139,0.0,0.0,83,0.00,,---,0.00,VWS V14.01,2013-05-15 08:18:00,
2013-05-15 04:21:00,61.3,56.1,30.07,SE,139,0.0,0.0,83,0.00,,---,0.00,VWS V14.01,2013-05-15 08:21:00,
2013-05-15 04:25:00,61.2,56.3,30.07,SE,139,0.0,0.0,84,0.00,,---,0.00,VWS V14.01,2013-05-15 08:25:00,
2013-05-15 04:27:00,61.2,56.3,30.07,SE,139,0.0,0.0,84,0.00,,---,0.00,VWS V14.01,2013-05-15 08:27:00,
2013-05-15 04:29:00,61.2,56.3,30.07,SE,139,0.0,0.0,84,0.00,,---,0.00,VWS V14.01,2013-05-15 08:29:00,
2013-05-15 04:30:00,61.2,56.3,30.07,SE,139,0.0,0.0,84,0.00,,---,0.00,VWS V14.01,2013-05-15 08:30:00,
2013-05-15 04:33:00,61.0,56.1,30.08,SE,139,0.0,0.0,84,0.00,,---,0.00,VWS V14.01,2013-05-15 08:33:00,
2013-05-15 04:34:00,61.0,56.1,30.08,SE,139,0.0,0.0,84,0.00,,---,0.00,VWS V14.01,2013-05-15 08:34:00,
2013-05-15 04:36:00,61.0,56.5,30.08,SE,139,0.0,0.0,85,0.00,,---,0.00,VWS V14.01,2013-05-15 08:36:00,
2013-05-15 04:39:00,61.0,56.5,30.08,SE,139,0.0,0.0,85,0.00,,---,0.00,VWS V14.01,2013-05-15 08:39:00,
2013-05-15 04:40:00,61.0,56.5,30.08,SE,139,0.0,0.0,85,0.00,,---,0.00,VWS V14.01,2013-05-15 08:40:00,
2013-05-15 04:45:00,61.0,56.5,30.08,SE,139,0.0,0.0,85,0.00,,---,0.00,VWS V14.01,2013-05-15 08:45:00,
2013-05-15 04:46:00,60.9,56.4,30.08,SE,139,0.0,0.0,85,0.00,,---,0.00,VWS V14.01,2013-05-15 08:46:00,
2013-05-15 04:51:00,60.9,56.4,30.08,SE,139,0.0,0.0,85,0.00,,---,0.00,VWS V14.01,2013-05-15 08:51:00,
2013-05-15 04:54:00,60.7,56.2,30.08,SE,139,0.0,0.0,85,0.00,,---,0.00,VWS V14.01,2013-05-15 08:54:00,
2013-05-15 04:55:00,60.7,56.2,30.08,SE,139,0.0,0.0,85,0.00,,---,0.00,VWS V14.01,2013-05-15 08:55:00,
2013-05-15 04:57:00,60.7,56.2,30.08,SE,139,0.0,0.0,85,0.00,,---,0.00,VWS V14.01,2013-05-15 08:57:00,
2013-05-15 05:00:00,60.7,56.2,30.08,SE,139,0.0,0.0,85,0.00,,---,0.00,VWS V14.01,2013-05-15 09:00:00,
2013-05-15 05:01:00,60.7,56.2,30.08,SE,139,0.0,0.0,85,0.00,,---,0.00,VWS V14.01,2013-05-15 09:01:00,
2013-05-15 05:04:00,60.5,56.3,30.08,SE,139,0.0,0.0,86,0.00,,---,0.00,VWS V14.01,2013-05-15 09:04:00,
2013-05-15 05:08:00,60.5,56.3,30.08,SE,139,0.0,0.0,86,0.00,,---,0.00,VWS V14.01,2013-05-15 09:08:00,
2013-05-15 05:10:00,60.5,56.3,30.08,SE,139,0.0,0.0,86,0.00,,---,0.00,VWS V14.01,2013-05-15 09:10:00,
2013-05-15 05:14:00,60.4,56.2,30.08,SE,139,0.0,0.0,86,0.00,,---,0.00,VWS V14.01,2013-05-15 09:14:00,
2013-05-15 05:18:00,60.4,56.2,30.08,SE,139,0.0,0.0,86,0.00,,---,0.00,VWS V14.01,2013-05-15 09:18:00,
2013-05-15 05:19:00,60.4,56.2,30.08,SE,139,0.0,0.0,86,0.00,,---,0.00,VWS V14.01,2013-05-15 09:19:00,
2013-05-15 05:22:00,60.4,56.5,30.08,SE,139,0.0,1.0,87,0.00,,---,0.00,VWS V14.01,2013-05-15 09:22:00,
2013-05-15 05:27:00,60.4,56.5,30.08,SE,139,0.0,1.0,87,0.00,,---,0.00,VWS V14.01,2013-05-15 09:27:00,
2013-05-15 05:29:00,60.4,56.5,30.08,SE,139,0.0,1.0,87,0.00,,---,0.00,VWS V14.01,2013-05-15 09:29:00,
2013-05-15 05:30:00,60.4,56.5,30.08,SE,139,0.0,1.0,87,0.00,,---,0.00,VWS V14.01,2013-05-15 09:30:00,
2013-05-15 05:34:00,60.4,56.5,30.08,SE,139,0.0,1.0,87,0.00,,---,0.00,VWS V14.01,2013-05-15 09:34:00,
2013-05-15 05:35:00,60.4,56.5,30.08,SE,139,0.0,1.0,87,0.00,,---,0.00,VWS V14.01,2013-05-15 09:35:00,
2013-05-15 05:36:00,60.4,56.5,30.08,SE,139,0.0,1.0,87,0.00,,---,0.00,VWS V14.01,2013-05-15 09:36:00,
2013-05-15 05:37:00,60.4,56.5,30.08,SE,139,0.0,1.0,87,0.00,,---,0.00,VWS V14.01,2013-05-15 09:37:00,
2013-05-15 05:40:00,60.4,56.5,30.08,SE,139,0.0,1.0,87,0.00,,---,0.00,VWS V14.01,2013-05-15 09:40:00,
2013-05-15 05:41:00,60.4,56.5,30.08,SE,139,0.0,1.0,87,0.00,,---,0.00,VWS V14.01,2013-05-15 09:41:00,
2013-05-15 05:44:00,60.5,56.6,30.08,SE,139,0.0,1.0,87,0.00,,---,0.00,VWS V14.01,2013-05-15 09:44:00,
2013-05-15 05:46:00,60.5,56.6,30.08,SE,139,0.0,1.0,87,0.00,,---,0.00,VWS V14.01,2013-05-15 09:46:00,
2013-05-15 05:47:00,60.5,56.6,30.08,SE,139,0.0,1.0,87,0.00,,---,0.00,VWS V14.01,2013-05-15 09:47:00,
2013-05-15 05:49:00,60.5,56.6,30.08,SE,139,0.0,1.0,87,0.00,,---,0.00,VWS V14.01,2013-05-15 09:49:00,
2013-05-15 05:52:00,60.5,56.6,30.08,SE,139,0.0,1.0,87,0.00,,---,0.00,VWS V14.01,2013-05-15 09:52:00,
2013-05-15 05:54:00,60.5,56.6,30.08,SE,139,0.0,1.0,87,0.00,,---,0.00,VWS V14.01,2013-05-15 09:54:00,
2013-05-15 05:55:00,60.5,56.6,30.08,SE,139,0.0,1.0,87,0.00,,---,0.00,VWS V14.01,2013-05-15 09:55:00,
2013-05-15 05:56:00,60.5,56.6,30.08,SE,139,0.0,1.0,87,0.00,,---,0.00,VWS V14.01,2013-05-15 09:56:00,
2013-05-15 05:58:00,60.5,56.6,30.08,SE,139,0.0,1.0,87,0.00,,---,0.00,VWS V14.01,2013-05-15 09:58:00,
2013-05-15 06:00:00,60.5,56.6,30.08,SE,139,0.0,1.0,87,0.00,,---,0.00,VWS V14.01,2013-05-15 10:00:00,
2013-05-15 06:01:00,60.5,56.6,30.08,SE,139,0.0,1.0,87,0.00,,---,0.00,VWS V14.01,2013-05-15 10:01:00,
2013-05-15 06:06:00,60.4,56.5,30.08,SE,139,0.0,1.0,87,0.00,,---,0.00,VWS V14.01,2013-05-15 10:06:00,
2013-05-15 06:07:00,60.4,56.5,30.08,SE,139,0.0,0.0,87,0.00,,---,0.00,VWS V14.01,2013-05-15 10:07:00,
2013-05-15 06:11:00,60.2,56.3,30.08,SE,139,0.0,0.0,87,0.00,,---,0.00,VWS V14.01,2013-05-15 10:11:00,
2013-05-15 06:12:00,60.1,56.2,30.08,SE,139,0.0,0.0,87,0.00,,---,0.00,VWS V14.01,2013-05-15 10:12:00,
2013-05-15 06:16:00,60.1,56.2,30.08,SE,139,0.0,0.0,87,0.00,,---,0.00,VWS V14.01,2013-05-15 10:16:00,
2013-05-15 06:18:00,59.9,56.0,30.08,SE,139,0.0,0.0,87,0.00,,---,0.00,VWS V14.01,2013-05-15 10:18:00,
2013-05-15 06:19:00,59.8,55.9,30.08,SE,139,0.0,0.0,87,0.00,,---,0.00,VWS V14.01,2013-05-15 10:19:00,
2013-05-15 06:20:00,59.8,55.9,30.08,SE,139,0.0,0.0,87,0.00,,---,0.00,VWS V14.01,2013-05-15 10:20:00,
2013-05-15 06:21:00,59.6,55.7,30.08,SE,139,0.0,0.0,87,0.00,,---,0.00,VWS V14.01,2013-05-15 10:21:00,
2013-05-15 06:23:00,59.6,55.7,30.08,SE,139,0.0,0.0,87,0.00,,---,0.00,VWS V14.01,2013-05-15 10:23:00,
2013-05-15 06:24:00,59.5,56.0,30.08,SE,139,0.0,0.0,88,0.00,,---,0.00,VWS V14.01,2013-05-15 10:24:00,
2013-05-15 06:27:00,59.5,56.0,30.08,SE,139,0.0,0.0,88,0.00,,---,0.00,VWS V14.01,2013-05-15 10:27:00,
2013-05-15 06:30:00,59.3,55.8,30.08,SE,139,0.0,0.0,88,0.00,,---,0.00,VWS V14.01,2013-05-15 10:30:00,
2013-05-15 06:33:00,59.3,55.8,30.08,SE,139,0.0,0.0,88,0.00,,---,0.00,VWS V14.01,2013-05-15 10:33:00,
2013-05-15 06:36:00,59.2,55.7,30.08,SE,139,0.0,0.0,88,0.00,,---,0.00,VWS V14.01,2013-05-15 10:36:00,
2013-05-15 06:41:00,58.9,55.7,30.08,SE,139,0.0,0.0,89,0.00,,---,0.00,VWS V14.01,2013-05-15 10:41:00,
2013-05-15 06:45:00,58.7,55.5,30.08,SE,139,0.0,0.0,89,0.00,,---,0.00,VWS V14.01,2013-05-15 10:45:00,
2013-05-15 06:47:00,58.6,55.4,30.08,SE,139,0.0,0.0,89,0.00,,---,0.00,VWS V14.01,2013-05-15 10:47:00,
2013-05-15 06:48:00,58.6,55.4,30.08,SE,139,0.0,0.0,89,0.00,,---,0.00,VWS V14.01,2013-05-15 10:48:00,
2013-05-15 06:50:00,58.4,55.2,30.09,SE,139,0.0,0.0,89,0.00,,---,0.00,VWS V14.01,2013-05-15 10:50:00,
2013-05-15 06:51:00,58.4,55.2,30.09,SE,139,0.0,0.0,89,0.00,,---,0.00,VWS V14.01,2013-05-15 10:51:00,
2013-05-15 06:56:00,58.3,55.4,30.09,SE,139,0.0,0.0,90,0.00,,---,0.00,VWS V14.01,2013-05-15 10:56:00,
2013-05-15 06:58:00,58.3,55.4,30.09,SE,139,0.0,0.0,90,0.00,,---,0.00,VWS V14.01,2013-05-15 10:58:00,
2013-05-15 07:00:00,58.1,55.2,30.09,SE,139,0.0,0.0,90,0.00,,---,0.00,VWS V14.01,2013-05-15 11:00:00,
2013-05-15 07:03:00,58.1,55.2,30.09,SE,139,0.0,0.0,90,0.00,,---,0.00,VWS V14.01,2013-05-15 11:03:00,
2013-05-15 07:04:00,58.1,55.2,30.09,SE,139,0.0,0.0,90,0.00,,---,0.00,VWS V14.01,2013-05-15 11:04:00,
2013-05-15 07:06:00,58.1,55.2,30.09,SE,139,0.0,0.0,90,0.00,,---,0.00,VWS V14.01,2013-05-15 11:06:00,
2013-05-15 07:09:00,58.1,55.5,30.09,SE,139,0.0,0.0,91,0.00,,---,0.00,VWS V14.01,2013-05-15 11:09:00,
2013-05-15 07:11:00,58.1,55.5,30.09,SE,139,0.0,0.0,91,0.00,,---,0.00,VWS V14.01,2013-05-15 11:11:00,
2013-05-15 07:13:00,58.1,55.5,30.09,SE,139,0.0,0.0,91,0.00,,---,0.00,VWS V14.01,2013-05-15 11:13:00,
2013-05-15 07:14:00,58.3,55.7,30.09,SE,139,0.0,0.0,91,0.00,,---,0.00,VWS V14.01,2013-05-15 11:14:00,
2013-05-15 07:18:00,58.6,56.3,30.09,SE,139,0.0,0.0,92,0.00,,---,0.00,VWS V14.01,2013-05-15 11:18:00,
2013-05-15 07:19:00,59.0,56.7,30.09,SE,139,0.0,0.0,92,0.00,,---,0.00,VWS V14.01,2013-05-15 11:19:00,
2013-05-15 07:21:00,59.0,56.7,30.09,SE,139,0.0,0.0,92,0.00,,---,0.00,VWS V14.01,2013-05-15 11:21:00,
2013-05-15 07:22:00,59.3,57.0,30.09,SE,139,0.0,0.0,92,0.00,,---,0.00,VWS V14.01,2013-05-15 11:22:00,
2013-05-15 07:23:00,59.3,57.0,30.09,SE,139,0.0,0.0,92,0.00,,---,0.00,VWS V14.01,2013-05-15 11:23:00,
2013-05-15 07:25:00,59.5,57.2,30.09,SE,139,0.0,0.0,92,0.00,,---,0.00,VWS V14.01,2013-05-15 11:25:00,
2013-05-15 07:28:00,59.9,57.3,30.09,SE,139,0.0,0.0,91,0.00,,---,0.00,VWS V14.01,2013-05-15 11:28:00,
2013-05-15 07:29:00,60.2,57.6,30.09,SE,139,0.0,0.0,91,0.00,,---,0.00,VWS V14.01,2013-05-15 11:29:00,
2013-05-15 07:30:00,60.2,57.6,30.09,SE,139,0.0,0.0,91,0.00,,---,0.00,VWS V14.01,2013-05-15 11:30:00,
2013-05-15 07:32:00,60.2,57.6,30.09,SE,139,0.0,0.0,91,0.00,,---,0.00,VWS V14.01,2013-05-15 11:32:00,
2013-05-15 07:36:00,61.2,58.6,30.09,SE,139,0.0,0.0,91,0.00,,---,0.00,VWS V14.01,2013-05-15 11:36:00,
2013-05-15 07:41:00,61.3,58.7,30.09,SE,139,0.0,0.0,91,0.00,,---,0.00,VWS V14.01,2013-05-15 11:41:00,
2013-05-15 07:45:00,62.9,59.0,30.09,SE,139,0.0,0.0,87,0.00,,---,0.00,VWS V14.01,2013-05-15 11:45:00,
2013-05-15 07:49:00,63.7,58.8,30.09,SE,139,0.0,0.0,84,0.00,,---,0.00,VWS V14.01,2013-05-15 11:49:00,
2013-05-15 07:50:00,63.9,59.0,30.09,SE,139,0.0,0.0,84,0.00,,---,0.00,VWS V14.01,2013-05-15 11:50:00,
2013-05-15 07:54:00,64.7,59.1,30.09,SE,139,0.0,0.0,82,0.00,,---,0.00,VWS V14.01,2013-05-15 11:54:00,
2013-05-15 07:55:00,65.2,59.2,30.09,SE,139,0.0,0.0,81,0.00,,---,0.00,VWS V14.01,2013-05-15 11:55:00,
2013-05-15 07:56:00,65.2,58.9,30.09,SE,139,0.0,0.0,80,0.00,,---,0.00,VWS V14.01,2013-05-15 11:56:00,
2013-05-15 08:00:00,65.6,58.9,30.09,SE,139,0.0,0.0,79,0.00,,---,0.00,VWS V14.01,2013-05-15 12:00:00,
2013-05-15 08:04:00,65.8,59.1,30.09,SE,139,0.0,0.0,79,0.00,,---,0.00,VWS V14.01,2013-05-15 12:04:00,
2013-05-15 08:05:00,66.4,59.0,30.09,SE,139,0.0,0.0,77,0.00,,---,0.00,VWS V14.01,2013-05-15 12:05:00,
2013-05-15 08:06:00,66.4,59.0,30.09,SE,139,0.0,0.0,77,0.00,,---,0.00,VWS V14.01,2013-05-15 12:06:00,
2013-05-15 08:10:00,66.9,58.7,30.09,SE,139,0.0,0.0,75,0.00,,---,0.00,VWS V14.01,2013-05-15 12:10:00,
2013-05-15 08:17:00,68.1,59.1,30.09,SE,139,0.0,1.0,73,0.00,,---,0.00,VWS V14.01,2013-05-15 12:17:00,
2013-05-15 08:18:00,68.3,58.9,30.10,SE,139,0.0,1.0,72,0.00,,---,0.00,VWS V14.01,2013-05-15 12:18:00,
2013-05-15 08:20:00,68.6,58.8,30.10,SE,139,0.0,1.0,71,0.00,,---,0.00,VWS V14.01,2013-05-15 12:20:00,
2013-05-15 08:21:00,68.6,58.8,30.10,SE,139,0.0,1.0,71,0.00,,---,0.00,VWS V14.01,2013-05-15 12:21:00,
2013-05-15 08:24:00,68.9,58.7,30.10,SE,139,0.0,1.0,70,0.00,,---,0.00,VWS V14.01,2013-05-15 12:24:00,
2013-05-15 08:26:00,69.4,58.8,30.10,SE,139,2.0,2.0,69,0.00,,---,0.00,VWS V14.01,2013-05-15 12:26:00,
2013-05-15 08:30:00,69.6,59.0,30.10,SE,139,0.0,2.0,69,0.00,,---,0.00,VWS V14.01,2013-05-15 12:30:00,
2013-05-15 08:31:00,69.9,58.9,30.10,SE,139,0.0,2.0,68,0.00,,---,0.00,VWS V14.01,2013-05-15 12:31:00,
2013-05-15 08:34:00,70.4,58.5,30.11,ENE,62,0.0,2.0,66,0.00,,---,0.00,VWS V14.01,2013-05-15 12:34:00,
2013-05-15 08:35:00,70.4,58.9,30.11,ENE,62,0.0,2.0,67,0.00,,---,0.00,VWS V14.01,2013-05-15 12:35:00,
2013-05-15 08:39:00,70.9,59.4,30.11,ENE,62,0.0,2.0,67,0.00,,---,0.00,VWS V14.01,2013-05-15 12:39:00,
2013-05-15 08:42:00,71.1,59.2,30.11,ENE,62,0.0,2.0,66,0.00,,---,0.00,VWS V14.01,2013-05-15 12:42:00,
2013-05-15 08:46:00,71.8,59.4,30.11,ENE,62,0.0,2.0,65,0.00,,---,0.00,VWS V14.01,2013-05-15 12:46:00,
2013-05-15 08:49:00,71.8,59.4,30.11,ENE,62,0.0,2.0,65,0.00,,---,0.00,VWS V14.01,2013-05-15 12:49:00,
2013-05-15 08:51:00,72.7,59.4,30.11,ENE,77,3.0,3.0,63,0.00,,---,0.00,VWS V14.01,2013-05-15 12:51:00,
2013-05-15 08:52:00,73.0,59.2,30.11,ESE,121,1.0,3.0,62,0.00,,---,0.00,VWS V14.01,2013-05-15 12:52:00,
2013-05-15 08:54:00,73.2,59.0,30.11,ESE,115,4.0,4.0,61,0.00,,---,0.00,VWS V14.01,2013-05-15 12:54:00,
2013-05-15 08:57:00,73.3,58.6,30.11,ESE,107,4.0,4.0,60,0.00,,---,0.00,VWS V14.01,2013-05-15 12:57:00,
2013-05-15 09:02:00,73.5,58.8,30.11,East,98,0.0,4.0,60,0.00,,---,0.00,VWS V14.01,2013-05-15 13:02:00,
2013-05-15 09:08:00,73.9,58.7,30.11,SE,127,0.0,7.0,59,0.00,,---,0.00,VWS V14.01,2013-05-15 13:08:00,
2013-05-15 09:10:00,73.9,58.7,30.11,SE,127,0.0,7.0,59,0.00,,---,0.00,VWS V14.01,2013-05-15 13:10:00,
2013-05-15 09:12:00,74.0,58.8,30.11,ESE,103,0.0,7.0,59,0.00,,---,0.00,VWS V14.01,2013-05-15 13:12:00,
2013-05-15 09:17:00,74.6,59.8,30.11,ESE,104,1.0,7.0,60,0.00,,---,0.00,VWS V14.01,2013-05-15 13:17:00,
2013-05-15 09:22:00,74.6,59.3,30.11,ESE,105,3.0,7.0,59,0.00,,---,0.00,VWS V14.01,2013-05-15 13:22:00,
2013-05-15 09:28:00,76.1,59.3,30.11,ESE,106,0.0,7.0,56,0.00,,---,0.00,VWS V14.01,2013-05-15 13:28:00,
2013-05-15 09:32:00,76.3,59.5,30.11,East,91,0.0,7.0,56,0.00,,---,0.00,VWS V14.01,2013-05-15 13:32:00,
2013-05-15 09:34:00,76.3,59.0,30.11,East,91,0.0,7.0,55,0.00,,---,0.00,VWS V14.01,2013-05-15 13:34:00,
2013-05-15 09:38:00,76.7,58.8,30.12,East,83,0.0,7.0,54,0.00,,---,0.00,VWS V14.01,2013-05-15 13:38:00,
2013-05-15 09:44:00,76.8,58.9,30.12,East,84,0.0,7.0,54,0.00,,---,0.00,VWS V14.01,2013-05-15 13:44:00,
2013-05-15 09:46:00,76.8,58.9,30.12,ESE,120,0.0,7.0,54,0.00,,---,0.00,VWS V14.01,2013-05-15 13:46:00,
2013-05-15 09:48:00,76.7,58.8,30.12,ESE,105,0.0,7.0,54,0.00,,---,0.00,VWS V14.01,2013-05-15 13:48:00,
2013-05-15 09:53:00,76.8,59.4,30.12,ESE,106,0.0,7.0,55,0.00,,---,0.00,VWS V14.01,2013-05-15 13:53:00,
2013-05-15 09:55:00,77.2,58.2,30.12,ENE,70,0.0,7.0,52,0.00,,---,0.00,VWS V14.01,2013-05-15 13:55:00,
2013-05-15 09:59:00,77.2,57.1,30.12,ENE,66,2.0,7.0,50,0.00,,---,0.00,VWS V14.01,2013-05-15 13:59:00,
2013-05-15 10:01:00,77.2,58.2,30.12,East,101,0.0,7.0,52,0.00,,---,0.00,VWS V14.01,2013-05-15 14:01:00,
2013-05-15 10:02:00,77.4,57.9,30.12,NE,46,0.0,7.0,51,0.00,,---,0.00,VWS V14.01,2013-05-15 14:02:00,
2013-05-15 10:06:00,77.2,58.8,30.11,NE,51,5.0,8.0,53,0.00,,---,0.00,VWS V14.01,2013-05-15 14:06:00,
2013-05-15 10:07:00,77.2,58.2,30.11,ENE,57,4.0,8.0,52,0.00,,---,0.00,VWS V14.01,2013-05-15 14:07:00,
2013-05-15 10:09:00,77.0,58.0,30.11,NNE,32,3.0,8.0,52,0.00,,---,0.00,VWS V14.01,2013-05-15 14:09:00,
2013-05-15 10:14:00,77.2,57.1,30.11,East,101,4.0,8.0,50,0.00,,---,0.00,VWS V14.01,2013-05-15 14:14:00,
2013-05-15 10:15:00,77.4,56.2,30.11,ESE,113,0.0,8.0,48,0.00,,---,0.00,VWS V14.01,2013-05-15 14:15:00,
2013-05-15 10:16:00,77.6,55.2,30.11,ENE,70,0.0,8.0,46,0.00,,---,0.00,VWS V14.01,2013-05-15 14:16:00,
2013-05-15 10:18:00,77.7,55.9,30.11,SE,129,0.0,8.0,47,0.00,,---,0.00,VWS V14.01,2013-05-15 14:18:00,
2013-05-15 10:24:00,78.5,57.2,30.11,SSE,162,3.0,8.0,48,0.00,,---,0.00,VWS V14.01,2013-05-15 14:24:00,
2013-05-15 10:31:00,78.8,55.7,30.11,NE,51,0.0,8.0,45,0.00,,---,0.00,VWS V14.01,2013-05-15 14:31:00,
2013-05-15 10:33:00,79.6,56.4,30.11,ESE,114,0.0,8.0,45,0.00,,---,0.00,VWS V14.01,2013-05-15 14:33:00,
2013-05-15 10:35:00,79.8,56.0,30.11,ESE,118,0.0,8.0,44,0.00,,---,0.00,VWS V14.01,2013-05-15 14:35:00,
2013-05-15 10:38:00,79.8,56.0,30.11,ESE,118,0.0,8.0,44,0.00,,---,0.00,VWS V14.01,2013-05-15 14:38:00,
2013-05-15 10:39:00,80.1,54.3,30.11,ESE,117,3.0,8.0,41,0.00,,---,0.00,VWS V14.01,2013-05-15 14:39:00,
2013-05-15 10:41:00,80.1,54.3,30.11,ESE,116,0.0,8.0,41,0.00,,---,0.00,VWS V14.01,2013-05-15 14:41:00,
2013-05-15 10:44:00,80.1,55.0,30.11,ESE,120,0.0,8.0,42,0.00,,---,0.00,VWS V14.01,2013-05-15 14:44:00,
2013-05-15 10:45:00,80.3,54.5,30.11,SSE,159,0.0,8.0,41,0.00,,---,0.00,VWS V14.01,2013-05-15 14:45:00,
2013-05-15 10:51:00,80.5,54.0,30.12,ESE,119,6.0,10.0,40,0.00,,---,0.00,VWS V14.01,2013-05-15 14:51:00,
2013-05-15 10:55:00,80.5,54.0,30.12,East,80,0.0,10.0,40,0.00,,---,0.00,VWS V14.01,2013-05-15 14:55:00,
2013-05-15 10:58:00,80.5,53.3,30.12,East,82,0.0,10.0,39,0.00,,---,0.00,VWS V14.01,2013-05-15 14:58:00,
2013-05-15 11:03:00,81.2,53.9,30.11,SE,130,4.0,10.0,39,0.00,,---,0.00,VWS V14.01,2013-05-15 15:03:00,
2013-05-15 11:04:00,81.2,53.9,30.11,SE,130,4.0,10.0,39,0.00,,---,0.00,VWS V14.01,2013-05-15 15:04:00,
2013-05-15 11:11:00,81.4,54.1,30.11,SE,127,0.0,0.0,39,0.00,,---,0.00,VWS V14.01,2013-05-15 15:11:00,
2013-05-15 11:12:00,81.2,52.5,30.11,ESE,115,1.0,3.0,37,0.00,,---,0.00,VWS V14.01,2013-05-15 15:12:00,
2013-05-15 11:18:00,81.2,51.7,30.11,ENE,60,4.0,4.0,36,0.00,,---,0.00,VWS V14.01,2013-05-15 15:18:00,
2013-05-15 11:19:00,80.9,53.7,30.11,East,96,0.0,4.0,39,0.00,,---,0.00,VWS V14.01,2013-05-15 15:19:00,
2013-05-15 11:23:00,81.1,53.8,30.11,East,96,0.0,4.0,39,0.00,,---,0.00,VWS V14.01,2013-05-15 15:23:00,
2013-05-15 11:25:00,81.2,53.2,30.11,East,100,1.0,4.0,38,0.00,,---,0.00,VWS V14.01,2013-05-15 15:25:00,
2013-05-15 11:26:00,81.6,52.8,30.11,ESE,107,4.0,5.0,37,0.00,,---,0.00,VWS V14.01,2013-05-15 15:26:00,
2013-05-15 11:30:00,81.6,52.8,30.11,ENE,65,0.0,5.0,37,0.00,,---,0.00,VWS V14.01,2013-05-15 15:30:00,
2013-05-15 11:35:00,82.2,52.6,30.11,SE,145,0.0,5.0,36,0.00,,---,0.00,VWS V14.01,2013-05-15 15:35:00,
2013-05-15 11:37:00,82.4,52.0,30.11,SE,138,0.0,5.0,35,0.00,,---,0.00,VWS V14.01,2013-05-15 15:37:00,
2013-05-15 11:43:00,82.6,52.2,30.11,SE,136,0.0,5.0,35,0.00,,---,0.00,VWS V14.01,2013-05-15 15:43:00,
2013-05-15 11:45:00,82.6,51.4,30.11,North,1,2.0,5.0,34,0.00,,---,0.00,VWS V14.01,2013-05-15 15:45:00,
2013-05-15 11:48:00,82.4,50.4,30.11,NNE,27,9.0,9.0,33,0.00,,---,0.00,VWS V14.01,2013-05-15 15:48:00,
2013-05-15 11:57:00,82.2,51.1,30.11,East,91,6.0,9.0,34,0.00,,---,0.00,VWS V14.01,2013-05-15 15:57:00,
2013-05-15 11:58:00,82.2,51.1,30.11,SE,145,0.0,9.0,34,0.00,,---,0.00,VWS V14.01,2013-05-15 15:58:00,
2013-05-15 12:00:00,82.2,50.3,30.11,SE,139,0.0,9.0,33,0.00,,---,0.00,VWS V14.01,2013-05-15 16:00:00,
2013-05-15 12:04:00,82.6,52.2,30.11,NE,41,0.0,9.0,35,0.00,,---,0.00,VWS V14.01,2013-05-15 16:04:00,
2013-05-15 12:09:00,82.4,49.6,30.11,North,6,0.0,11.0,32,0.00,,---,0.00,VWS V14.01,2013-05-15 16:09:00,
2013-05-15 12:12:00,82.6,48.9,30.11,SE,143,0.0,11.0,31,0.00,,---,0.00,VWS V14.01,2013-05-15 16:12:00,
2013-05-15 12:15:00,82.8,50.0,30.11,East,96,5.0,11.0,32,0.00,,---,0.00,VWS V14.01,2013-05-15 16:15:00,
2013-05-15 12:17:00,82.6,48.9,30.11,NE,46,9.0,11.0,31,0.00,,---,0.00,VWS V14.01,2013-05-15 16:17:00,
2013-05-15 12:22:00,82.0,49.3,30.10,NE,44,5.0,11.0,32,0.00,,---,0.00,VWS V14.01,2013-05-15 16:22:00,
2013-05-15 12:25:00,81.8,49.1,30.10,ENE,68,6.0,11.0,32,0.00,,---,0.00,VWS V14.01,2013-05-15 16:25:00,
2013-05-15 12:28:00,81.6,49.7,30.10,North,1,0.0,11.0,33,0.00,,---,0.00,VWS V14.01,2013-05-15 16:28:00,
2013-05-15 12:31:00,82.2,50.3,30.10,NE,42,6.0,11.0,33,0.00,,---,0.00,VWS V14.01,2013-05-15 16:31:00,
2013-05-15 12:32:00,82.2,49.4,30.10,ESE,120,0.0,11.0,32,0.00,,---,0.00,VWS V14.01,2013-05-15 16:32:00,
2013-05-15 12:33:00,82.4,51.2,30.10,ESE,120,5.0,11.0,34,0.00,,---,0.00,VWS V14.01,2013-05-15 16:33:00,
2013-05-15 12:34:00,82.4,51.2,30.10,ESE,120,5.0,11.0,34,0.00,,---,0.00,VWS V14.01,2013-05-15 16:34:00,
2013-05-15 12:38:00,82.4,47.9,30.10,NE,53,6.0,11.0,30,0.00,,---,0.00,VWS V14.01,2013-05-15 16:38:00,
2013-05-15 12:41:00,82.4,47.9,30.10,ENE,78,3.0,11.0,30,0.00,,---,0.00,VWS V14.01,2013-05-15 16:41:00,
2013-05-15 12:42:00,82.2,49.4,30.10,NE,44,5.0,11.0,32,0.00,,---,0.00,VWS V14.01,2013-05-15 16:42:00,
2013-05-15 12:45:00,82.2,47.7,30.10,NE,37,4.0,11.0,30,0.00,,---,0.00,VWS V14.01,2013-05-15 16:45:00,
2013-05-15 12:49:00,82.4,50.4,30.09,NNE,20,0.0,11.0,33,0.00,,---,0.00,VWS V14.01,2013-05-15 16:49:00,
2013-05-15 12:50:00,82.4,47.0,30.09,ENE,62,6.0,11.0,29,0.00,,---,0.00,VWS V14.01,2013-05-15 16:50:00,
2013-05-15 12:52:00,82.4,47.9,30.09,North,358,8.0,11.0,30,0.00,,---,0.00,VWS V14.01,2013-05-15 16:52:00,
2013-05-15 12:58:00,82.4,47.9,30.09,North,356,4.0,11.0,30,0.00,,---,0.00,VWS V14.01,2013-05-15 16:58:00,
2013-05-15 13:00:00,82.8,50.0,30.09,NE,37,6.0,11.0,32,0.00,,---,0.00,VWS V14.01,2013-05-15 17:00:00,
2013-05-15 13:03:00,83.2,50.3,30.09,ENE,59,7.0,11.0,32,0.00,,---,0.00,VWS V14.01,2013-05-15 17:03:00,
2013-05-15 13:06:00,83.0,48.4,30.09,East,101,0.0,11.0,30,0.00,,---,0.00,VWS V14.01,2013-05-15 17:06:00,
2013-05-15 13:08:00,82.8,48.2,30.09,ENE,60,5.0,11.0,30,0.00,,---,0.00,VWS V14.01,2013-05-15 17:08:00,
2013-05-15 13:10:00,82.8,50.0,30.09,SE,138,1.0,11.0,32,0.00,,---,0.00,VWS V14.01,2013-05-15 17:10:00,
2013-05-15 13:14:00,83.2,49.5,30.09,ESE,116,6.0,11.0,31,0.00,,---,0.00,VWS V14.01,2013-05-15 17:14:00,
2013-05-15 13:15:00,83.4,49.6,30.09,NE,34,6.0,11.0,31,0.00,,---,0.00,VWS V14.01,2013-05-15 17:15:00,
2013-05-15 13:16:00,83.4,48.8,30.09,NNE,12,0.0,11.0,30,0.00,,---,0.00,VWS V14.01,2013-05-15 17:16:00,
2013-05-15 13:22:00,83.8,49.1,30.08,East,86,8.0,11.0,30,0.00,,---,0.00,VWS V14.01,2013-05-15 17:22:00,
2013-05-15 13:28:00,84.1,50.2,30.08,ENE,57,0.0,11.0,31,0.00,,---,0.00,VWS V14.01,2013-05-15 17:28:00,
2013-05-15 13:33:00,84.1,50.2,30.08,North,357,7.0,11.0,31,0.00,,---,0.00,VWS V14.01,2013-05-15 17:33:00,
2013-05-15 13:36:00,84.0,49.3,30.08,East,85,0.0,11.0,30,0.00,,---,0.00,VWS V14.01,2013-05-15 17:36:00,
2013-05-15 13:38:00,84.1,50.2,30.08,ESE,122,0.0,11.0,31,0.00,,---,0.00,VWS V14.01,2013-05-15 17:38:00,
2013-05-15 13:42:00,83.8,48.2,30.08,South,186,4.0,11.0,29,0.00,,---,0.00,VWS V14.01,2013-05-15 17:42:00,
2013-05-15 13:43:00,83.8,48.2,30.08,East,88,1.0,11.0,29,0.00,,---,0.00,VWS V14.01,2013-05-15 17:43:00,
2013-05-15 13:44:00,83.8,49.1,30.08,ESE,103,5.0,11.0,30,0.00,,---,0.00,VWS V14.01,2013-05-15 17:44:00,
2013-05-15 13:51:00,84.0,48.4,30.06,NE,47,0.0,11.0,29,0.00,,---,0.00,VWS V14.01,2013-05-15 17:51:00,
2013-05-15 13:54:00,84.7,48.0,30.06,ENE,63,6.0,11.0,28,0.00,,---,0.00,VWS V14.01,2013-05-15 17:54:00,
2013-05-15 13:58:00,84.7,47.1,30.06,East,91,0.0,11.0,27,0.00,,---,0.00,VWS V14.01,2013-05-15 17:58:00,
2013-05-15 13:59:00,84.7,49.9,30.06,SE,124,2.0,11.0,30,0.00,,---,0.00,VWS V14.01,2013-05-15 17:59:00,
2013-05-15 14:03:00,84.7,49.0,30.06,NE,49,0.0,11.0,29,0.00,,---,0.00,VWS V14.01,2013-05-15 18:03:00,
2013-05-15 14:04:00,84.7,49.0,30.06,NE,49,0.0,11.0,29,0.00,,---,0.00,VWS V14.01,2013-05-15 18:04:00,
2013-05-15 14:05:00,84.9,50.0,30.06,WSW,243,2.0,11.0,30,0.00,,---,0.00,VWS V14.01,2013-05-15 18:05:00,
2013-05-15 14:07:00,85.3,50.4,30.06,ESE,104,0.0,11.0,30,0.00,,---,0.00,VWS V14.01,2013-05-15 18:07:00,
2013-05-15 14:11:00,85.5,49.7,30.06,ESE,121,3.0,11.0,29,0.00,,---,0.00,VWS V14.01,2013-05-15 18:11:00,
2013-05-15 14:13:00,85.5,49.7,30.06,ESE,122,0.0,11.0,29,0.00,,---,0.00,VWS V14.01,2013-05-15 18:13:00,
2013-05-15 14:19:00,85.9,50.9,30.06,ESE,115,0.0,11.0,30,0.00,,---,0.00,VWS V14.01,2013-05-15 18:19:00,
2013-05-15 14:23:00,86.5,48.6,30.05,SSW,210,5.0,11.0,27,0.00,,---,0.00,VWS V14.01,2013-05-15 18:23:00,
2013-05-15 14:28:00,86.5,49.6,30.05,SSE,149,0.0,11.0,28,0.00,,---,0.00,VWS V14.01,2013-05-15 18:28:00,
2013-05-15 14:32:00,87.2,50.2,30.05,ESE,111,5.0,11.0,28,0.00,,---,0.00,VWS V14.01,2013-05-15 18:32:00,
2013-05-15 14:34:00,86.7,51.6,30.05,ENE,75,6.0,11.0,30,0.00,,---,0.00,VWS V14.01,2013-05-15 18:34:00,
2013-05-15 14:37:00,86.3,53.0,30.05,ENE,73,0.0,11.0,32,0.00,,---,0.00,VWS V14.01,2013-05-15 18:37:00,
2013-05-15 14:39:00,86.3,50.3,30.05,NE,52,0.0,11.0,29,0.00,,---,0.00,VWS V14.01,2013-05-15 18:39:00,
2013-05-15 14:44:00,86.7,50.7,30.05,North,0,3.0,11.0,29,0.00,,---,0.00,VWS V14.01,2013-05-15 18:44:00,
2013-05-15 14:45:00,86.7,50.7,30.05,North,0,3.0,11.0,29,0.00,,---,0.00,VWS V14.01,2013-05-15 18:45:00,
2013-05-15 14:47:00,86.5,51.4,30.05,ESE,120,5.0,11.0,30,0.00,,---,0.00,VWS V14.01,2013-05-15 18:47:00,
2013-05-15 14:48:00,86.5,51.4,30.05,ESE,107,12.0,12.0,30,0.00,,---,0.00,VWS V14.01,2013-05-15 18:48:00,
2013-05-15 14:50:00,86.5,50.5,30.05,ESE,113,8.0,12.0,29,0.00,,---,0.00,VWS V14.01,2013-05-15 18:50:00,
2013-05-15 14:55:00,86.3,51.2,30.05,SE,126,4.0,12.0,30,0.00,,---,0.00,VWS V14.01,2013-05-15 18:55:00,
2013-05-15 14:56:00,86.1,51.1,30.05,SSE,166,4.0,12.0,30,0.00,,---,0.00,VWS V14.01,2013-05-15 18:56:00,
2013-05-15 15:05:00,86.5,50.5,30.04,North,0,5.0,12.0,29,0.00,,---,0.00,VWS V14.01,2013-05-15 19:05:00,
2013-05-15 15:08:00,86.5,52.3,30.04,East,89,0.0,12.0,31,0.00,,---,0.00,VWS V14.01,2013-05-15 19:08:00,
2013-05-15 15:10:00,86.7,51.6,30.04,NE,41,0.0,12.0,30,0.00,,---,0.00,VWS V14.01,2013-05-15 19:10:00,
2013-05-15 15:13:00,87.2,52.9,30.04,East,86,0.0,12.0,31,0.00,,---,0.00,VWS V14.01,2013-05-15 19:13:00,
2013-05-15 15:15:00,87.2,52.9,30.04,East,86,0.0,12.0,31,0.00,,---,0.00,VWS V14.01,2013-05-15 19:15:00,
2013-05-15 15:22:00,87.2,52.9,30.03,ESE,103,2.0,12.0,31,0.00,,---,0.00,VWS V14.01,2013-05-15 19:22:00,
2013-05-15 15:24:00,87.4,52.2,30.03,SE,130,0.0,12.0,30,0.00,,---,0.00,VWS V14.01,2013-05-15 19:24:00,
2013-05-15 15:28:00,87.6,52.4,30.03,ENE,72,0.0,12.0,30,0.00,,---,0.00,VWS V14.01,2013-05-15 19:28:00,
2013-05-15 15:29:00,87.6,52.4,30.03,ENE,63,3.0,12.0,30,0.00,,---,0.00,VWS V14.01,2013-05-15 19:29:00,
2013-05-15 15:33:00,86.7,52.5,30.03,NE,53,6.0,12.0,31,0.00,,---,0.00,VWS V14.01,2013-05-15 19:33:00,
2013-05-15 15:35:00,86.7,52.5,30.03,NE,53,6.0,12.0,31,0.00,,---,0.00,VWS V14.01,2013-05-15 19:35:00,
2013-05-15 15:38:00,86.1,52.0,30.03,East,99,0.0,12.0,31,0.00,,---,0.00,VWS V14.01,2013-05-15 19:38:00,
2013-05-15 15:39:00,85.9,51.8,30.03,ENE,68,0.0,12.0,31,0.00,,---,0.00,VWS V14.01,2013-05-15 19:39:00,
2013-05-15 15:43:00,85.9,51.8,30.03,ENE,68,0.0,12.0,31,0.00,,---,0.00,VWS V14.01,2013-05-15 19:43:00,
2013-05-15 15:47:00,85.7,51.6,30.03,ESE,113,5.0,12.0,31,0.00,,---,0.00,VWS V14.01,2013-05-15 19:47:00,
2013-05-15 15:50:00,85.7,51.6,30.03,ESE,113,5.0,12.0,31,0.00,,---,0.00,VWS V14.01,2013-05-15 19:50:00,
2013-05-15 15:55:00,87.0,51.8,30.02,NE,56,10.0,12.0,30,0.00,,---,0.00,VWS V14.01,2013-05-15 19:55:00,
2013-05-15 15:57:00,86.7,51.6,30.02,ENE,59,0.0,12.0,30,0.00,,---,0.00,VWS V14.01,2013-05-15 19:57:00,
2013-05-15 15:58:00,86.1,53.7,30.02,North,0,0.0,12.0,33,0.00,,---,0.00,VWS V14.01,2013-05-15 19:58:00,
2013-05-15 16:05:00,85.7,53.3,30.01,SE,126,0.0,12.0,33,0.00,,---,0.00,VWS V14.01,2013-05-15 20:05:00,
2013-05-15 16:10:00,86.5,53.2,30.01,East,91,6.0,6.0,32,0.00,,---,0.00,VWS V14.01,2013-05-15 20:10:00,
2013-05-15 16:15:00,87.0,52.7,30.01,East,89,0.0,12.0,31,0.00,,---,0.00,VWS V14.01,2013-05-15 20:15:00,
2013-05-15 16:18:00,87.2,52.9,30.01,ENE,68,4.0,12.0,31,0.00,,---,0.00,VWS V14.01,2013-05-15 20:18:00,
2013-05-15 16:23:00,87.4,53.1,30.01,NE,34,0.0,12.0,31,0.00,,---,0.00,VWS V14.01,2013-05-15 20:23:00,
2013-05-15 16:25:00,87.0,53.6,30.01,NNE,27,0.0,12.0,32,0.00,,---,0.00,VWS V14.01,2013-05-15 20:25:00,
2013-05-15 16:26:00,87.0,53.6,30.01,NNE,27,0.0,12.0,32,0.00,,---,0.00,VWS V14.01,2013-05-15 20:26:00,
2013-05-15 16:31:00,87.0,52.7,30.01,SE,140,3.0,12.0,31,0.00,,---,0.00,VWS V14.01,2013-05-15 20:31:00,
2013-05-15 16:34:00,87.2,52.9,30.01,ENE,70,1.0,12.0,31,0.00,,---,0.00,VWS V14.01,2013-05-15 20:34:00,
2013-05-15 16:36:00,87.0,55.3,30.00,North,358,0.0,12.0,34,0.00,,---,0.00,VWS V14.01,2013-05-15 20:36:00,
2013-05-15 16:38:00,87.0,53.6,30.00,ESE,103,0.0,12.0,32,0.00,,---,0.00,VWS V14.01,2013-05-15 20:38:00,
2013-05-15 16:40:00,87.2,53.8,30.00,NNW,348,6.0,12.0,32,0.00,,---,0.00,VWS V14.01,2013-05-15 20:40:00,
2013-05-15 16:43:00,87.4,53.1,30.00,North,350,0.0,12.0,31,0.00,,---,0.00,VWS V14.01,2013-05-15 20:43:00,
2013-05-15 16:44:00,87.4,54.0,30.00,ENE,63,0.0,12.0,32,0.00,,---,0.00,VWS V14.01,2013-05-15 20:44:00,
2013-05-15 16:50:00,87.4,53.1,29.99,North,11,0.0,12.0,31,0.00,,---,0.00,VWS V14.01,2013-05-15 20:50:00,
2013-05-15 16:54:00,87.6,52.4,29.99,ENE,58,0.0,12.0,30,0.00,,---,0.00,VWS V14.01,2013-05-15 20:54:00,
2013-05-15 16:56:00,87.4,52.2,29.99,SE,146,0.0,12.0,30,0.00,,---,0.00,VWS V14.01,2013-05-15 20:56:00,
2013-05-15 16:58:00,87.4,54.0,29.99,SE,146,5.0,12.0,32,0.00,,---,0.00,VWS V14.01,2013-05-15 20:58:00,
2013-05-15 16:59:00,87.2,52.9,29.99,ESE,107,0.0,12.0,31,0.00,,---,0.00,VWS V14.01,2013-05-15 20:59:00,
2013-05-15 17:01:00,87.2,53.8,29.99,SSE,155,0.0,12.0,32,0.00,,---,0.00,VWS V14.01,2013-05-15 21:01:00,
2013-05-15 17:04:00,87.0,53.6,29.99,SSE,150,0.0,12.0,32,0.00,,---,0.00,VWS V14.01,2013-05-15 21:04:00,
2013-05-15 17:10:00,87.0,52.7,29.99,SSE,160,0.0,8.0,31,0.00,,---,0.00,VWS V14.01,2013-05-15 21:10:00,
2013-05-15 17:11:00,87.2,53.8,29.99,SSE,158,0.0,8.0,32,0.00,,---,0.00,VWS V14.01,2013-05-15 21:11:00,
2013-05-15 17:13:00,87.8,55.2,29.99,SSE,158,0.0,8.0,33,0.00,,---,0.00,VWS V14.01,2013-05-15 21:13:00,
2013-05-15 17:18:00,88.0,54.5,29.99,East,83,0.0,8.0,32,0.00,,---,0.00,VWS V14.01,2013-05-15 21:18:00,
2013-05-15 17:19:00,88.0,53.6,29.99,East,97,6.0,8.0,31,0.00,,---,0.00,VWS V14.01,2013-05-15 21:19:00,
2013-05-15 17:25:00,86.5,54.8,29.99,ESE,110,0.0,10.0,34,0.00,,---,0.00,VWS V14.01,2013-05-15 21:25:00,
2013-05-15 17:27:00,86.3,54.7,29.99,ESE,110,0.0,10.0,34,0.00,,---,0.00,VWS V14.01,2013-05-15 21:27:00,
2013-05-15 17:32:00,85.5,54.8,29.99,East,82,4.0,10.0,35,0.00,,---,0.00,VWS V14.01,2013-05-15 21:32:00,
2013-05-15 17:34:00,84.9,55.0,29.99,ESE,116,2.0,10.0,36,0.00,,---,0.00,VWS V14.01,2013-05-15 21:34:00,
2013-05-15 17:40:00,85.5,55.5,29.99,SSE,161,4.0,10.0,36,0.00,,---,0.00,VWS V14.01,2013-05-15 21:40:00,
2013-05-15 17:46:00,86.7,55.0,29.99,SE,138,0.0,10.0,34,0.00,,---,0.00,VWS V14.01,2013-05-15 21:46:00,
2013-05-15 17:47:00,86.7,55.0,29.99,SE,137,0.0,10.0,34,0.00,,---,0.00,VWS V14.01,2013-05-15 21:47:00,
2013-05-15 17:52:00,86.1,56.0,29.99,NNE,28,0.0,10.0,36,0.00,,---,0.00,VWS V14.01,2013-05-15 21:52:00,
2013-05-15 17:58:00,85.1,58.8,29.99,East,84,6.0,10.0,41,0.00,,---,0.00,VWS V14.01,2013-05-15 21:58:00,
2013-05-15 17:59:00,84.5,60.8,29.99,SE,144,0.0,10.0,45,0.00,,---,0.00,VWS V14.01,2013-05-15 21:59:00,
2013-05-15 18:04:00,83.6,60.0,29.99,NNW,340,4.0,10.0,45,0.00,,---,0.00,VWS V14.01,2013-05-15 22:04:00,
2013-05-15 18:06:00,83.4,60.5,29.99,NW,326,1.0,4.0,46,0.00,,---,0.00,VWS V14.01,2013-05-15 22:06:00,
2013-05-15 18:07:00,83.2,60.9,29.99,WSW,248,0.0,4.0,47,0.00,,---,0.00,VWS V14.01,2013-05-15 22:07:00,
2013-05-15 18:10:00,83.2,60.9,29.99,West,267,1.0,4.0,47,0.00,,---,0.00,VWS V14.01,2013-05-15 22:10:00,
2013-05-15 18:13:00,83.2,60.9,29.99,WSW,241,1.0,4.0,47,0.00,,---,0.00,VWS V14.01,2013-05-15 22:13:00,
2013-05-15 18:14:00,83.4,61.1,29.99,West,259,6.0,6.0,47,0.00,,---,0.00,VWS V14.01,2013-05-15 22:14:00,
2013-05-15 18:17:00,83.4,61.1,29.99,SW,236,0.0,6.0,47,0.00,,---,0.00,VWS V14.01,2013-05-15 22:17:00,
2013-05-15 18:22:00,84.0,62.2,29.99,SW,236,0.0,6.0,48,0.00,,---,0.00,VWS V14.01,2013-05-15 22:22:00,
2013-05-15 18:26:00,84.0,62.2,29.99,WNW,292,0.0,6.0,48,0.00,,---,0.00,VWS V14.01,2013-05-15 22:26:00,
2013-05-15 18:32:00,83.0,61.9,29.99,WNW,284,0.0,6.0,49,0.00,,---,0.00,VWS V14.01,2013-05-15 22:32:00,
2013-05-15 18:33:00,82.0,61.5,29.99,NNW,332,0.0,6.0,50,0.00,,---,0.00,VWS V14.01,2013-05-15 22:33:00,
2013-05-15 18:34:00,81.8,61.9,29.99,North,357,0.0,6.0,51,0.00,,---,0.00,VWS V14.01,2013-05-15 22:34:00,
2013-05-15 18:39:00,80.7,62.0,29.99,WNW,296,0.0,7.0,53,0.00,,---,0.00,VWS V14.01,2013-05-15 22:39:00,